TimeEST,TemperatureF,Dew PointF,Humidity,Sea Level PressureIn,VisibilityMPH,Wind Direction,Wind SpeedMPH,Gust SpeedMPH,PrecipitationIn,Events,Conditions,WindDirDegrees,DateUTC
12:53 AM,16.0,5.0,62,30.45,10.0,Calm,Calm,-,N/A,,Scattered Clouds,0,2013-01-28 05:53:00
1:53 AM,15.1,5.0,64,30.45,10.0,Calm,Calm,-,N/A,,Clear,0,2013-01-28 06:53:00
2:53 AM,14.0,6.1,71,30.45,10.0,Calm,Calm,-,N/A,,Clear,0,2013-01-28 07:53:00
3:53 AM,12.9,6.1,74,30.43,10.0,Calm,Calm,-,N/A,,Scattered Clouds,0,2013-01-28 08:53:00
4:53 AM,14.0,7.0,74,30.42,10.0,Calm,Calm,-,N/A,,Partly Cloudy,0,2013-01-28 09:53:00
5:53 AM,12.0,5.0,73,30.42,10.0,Calm,Calm,-,N/A,,Partly Cloudy,0,2013-01-28 10:53:00
6:53 AM,12.9,8.1,81,30.42,10.0,Calm,Calm,-,N/A,,Clear,0,2013-01-28 11:53:00
7:53 AM,19.0,10.0,68,30.41,10.0,Calm,Calm,-,N/A,,Overcast,0,2013-01-28 12:53:00
8:53 AM,23.0,3.9,44,30.41,10.0,Calm,Calm,-,N/A,,Overcast,0,2013-01-28 13:53:00
9:53 AM,27.0,3.0,36,30.40,10.0,Calm,Calm,-,N/A,,Mostly Cloudy,0,2013-01-28 14:53:00
10:53 AM,28.9,3.0,33,30.37,10.0,Calm,Calm,-,N/A,,Overcast,0,2013-01-28 15:53:00
11:53 AM,30.9,-0.0,27,30.33,10.0,South,5.8,-,N/A,,Overcast,180,2013-01-28 16:53:00
12:53 PM,30.9,1.0,28,30.29,10.0,South,6.9,-,N/A,,Overcast,190,2013-01-28 17:53:00
1:53 PM,30.9,10.9,43,30.24,10.0,South,9.2,-,N/A,,Overcast,190,2013-01-28 18:53:00
2:48 PM,28.4,19.4,69,30.21,2.5,South,5.8,-,0.00,Snow,Light Snow,190,2013-01-28 19:48:00
2:53 PM,28.0,19.0,69,30.21,1.5,SSW,9.2,-,0.00,Snow,Light Snow,200,2013-01-28 19:53:00
3:53 PM,26.1,23.0,88,30.17,1.5,ESE,4.6,-,0.01,Snow,Light Snow,110,2013-01-28 20:53:00
4:00 PM,26.6,23.0,86,30.16,0.5,East,3.5,-,0.00,Fog-Snow,Light Snow,90,2013-01-28 21:00:00
4:08 PM,26.6,23.0,86,30.17,1.5,ESE,3.5,-,0.00,Snow,Light Snow,120,2013-01-28 21:08:00
4:14 PM,26.6,23.0,86,30.17,3.0,Calm,Calm,-,0.00,Snow,Light Snow,0,2013-01-28 21:14:00
4:51 PM,26.6,23.0,86,30.15,2.5,East,4.6,-,0.01,Snow,Light Snow,80,2013-01-28 21:51:00
4:53 PM,27.0,23.0,85,30.15,3.0,East,3.5,-,0.01,Snow,Light Snow,90,2013-01-28 21:53:00
4:59 PM,26.6,23.0,86,30.14,1.8,East,5.8,-,0.00,Snow,Light Snow,90,2013-01-28 21:59:00
5:18 PM,26.6,24.8,93,30.13,1.0,East,4.6,-,0.01,Snow,Light Snow,100,2013-01-28 22:18:00
5:33 PM,26.6,24.8,93,30.13,1.2,East,4.6,-,0.02,Snow,Light Snow,90,2013-01-28 22:33:00
5:53 PM,27.0,24.1,89,30.11,1.8,ESE,3.5,-,0.02,Snow,Light Snow,110,2013-01-28 22:53:00
6:08 PM,26.6,24.8,93,30.11,2.5,Calm,Calm,-,0.00,Snow,Light Snow,0,2013-01-28 23:08:00
6:17 PM,26.6,24.8,93,30.10,3.0,Calm,Calm,-,0.00,,Overcast,0,2013-01-28 23:17:00
6:29 PM,26.6,24.8,93,30.09,4.0,Calm,Calm,-,0.00,,Overcast,0,2013-01-28 23:29:00
6:50 PM,26.6,24.8,93,30.10,5.0,Calm,Calm,-,0.00,,Overcast,0,2013-01-28 23:50:00
6:53 PM,27.0,24.1,89,30.10,5.0,Calm,Calm,-,0.00,,Overcast,0,2013-01-28 23:53:00
7:53 PM,28.0,24.1,85,30.07,5.0,Calm,Calm,-,N/A,,Overcast,0,2013-01-29 00:53:00
8:36 PM,28.4,26.6,93,30.06,2.5,NE,3.5,-,0.01,Rain,Light Freezing Rain,40,2013-01-29 01:36:00
8:53 PM,28.0,26.1,92,30.06,3.0,NNE,3.5,-,0.01,Rain,Light Freezing Rain,20,2013-01-29 01:53:00
9:21 PM,28.4,26.6,93,30.03,2.5,ENE,3.5,-,0.03,Rain,Light Freezing Rain,60,2013-01-29 02:21:00
9:29 PM,28.4,26.6,93,30.03,3.0,Calm,Calm,-,0.04,Rain,Light Freezing Rain,0,2013-01-29 02:29:00
9:53 PM,28.9,27.0,92,30.03,3.0,Calm,Calm,-,0.04,Rain,Light Freezing Rain,0,2013-01-29 02:53:00
10:34 PM,28.4,26.6,93,30.02,6.0,Calm,Calm,-,0.00,,Overcast,0,2013-01-29 03:34:00
10:53 PM,28.9,27.0,92,30.03,6.0,Calm,Calm,-,0.00,,Overcast,0,2013-01-29 03:53:00
11:53 PM,28.9,27.0,92,30.01,2.5,Calm,Calm,-,0.01,Snow,Light Snow,0,2013-01-29 04:53:00